Effective Sunday, March 17, 2024, the National Weather Service National Data Buoy Center will discontinue its Dial-A-Buoy Interactive Voice Response system. For more information, see Service Change Notice 24-06 (PDF).

Station PBFW1 - Padilla Bay Farm, Padilla Bay Reserve, WA Image indicating link to RSS feed of recent meteorological observations for station PBFW1


Conditions at PBFW1 as of
(10:30 pm PST on 02/26/2024)
0630 GMT on 02/27/2024:
     

Click on the graph icon in the table below to see a time series plot of the last five days of that observation.

5-day plot - Wind Direction Wind Direction (WDIR): W ( 270 deg true )
5-day plot - Wind Speed Wind Speed (WSPD): 2.9 kts
5-day plot - Atmospheric Pressure Atmospheric Pressure (PRES):29.88 in
5-day plot - Air Temperature Air Temperature (ATMP): 34.0 °F
5-day plot - Dew Point Dew Point (DEWP): 30.6 °F
5-day plot - Wind Chill Wind Chill (CHILL): 31.1 °F
5-day plot -  Wind Speed, Wind Gust and Atmospheric Pressure Combined plot of Wind Speed, Gust, and Air Pressure
Previous observations
TIME
(PST)
5-day plot - Wind Direction
WDIR
 
5-day plot - Wind Speed
WSPD
kts
5-day plot - Wind Gust
GST
kts
5-day plot - Wave Height
WVHT
ft
5-day plot - Dominant Wave Period
DPD
sec
5-day plot - Average Wave Period
APD
sec
5-day plot - Mean Wave Direction
MWD
 
5-day plot - Atmospheric Pressure
PRES
in
5-day plot - Pressure Tendency
PTDY
in
5-day plot - Air Temperature
ATMP
°F
5-day plot - Water Temperature
WTMP
°F
5-day plot - Dew Point
DEWP
°F
5-day plot - Salinity
SAL
psu
5-day plot - Visibility
VIS
nmi
5-day plot - Tide (above MLLW)
TIDE
ft
2024-02-26 10:15 pmWSW 2.9-----29.88- 34.2- 32.2---
2024-02-26 10:00 pmWSW 5.1-----29.88+0.03 33.6- 33.1---
2024-02-26 09:45 pmSSE 1.9-----29.88- 33.1- 32.9---
2024-02-26 09:30 pm S 1.9-----29.88- 32.9- 32.7---
2024-02-26 09:15 pm S 1.9-----29.88- 32.5- 32.4---
2024-02-26 09:00 pm S 1.9-----29.85+0.03 32.5- 32.4---
2024-02-26 08:45 pmSSE 1.9-----29.85- 32.5- 32.4---
2024-02-26 08:30 pmSSW 1.9-----29.85- 32.4- 32.2---
2024-02-26 08:15 pm S 1.9-----29.85- 32.4- 32.2---
2024-02-26 08:00 pm S 1.9-----29.85+0.06 32.4- 32.2---
2024-02-26 07:45 pmSSE 1.9-----29.85- 32.4- 32.2---
2024-02-26 07:30 pm SE 1.9-----29.85- 32.2- 31.6---
2024-02-26 07:15 pm- 0.0-----29.85- 32.2- 31.6---
2024-02-26 07:00 pm W 1.9-----29.85+0.06 32.4- 31.8---
2024-02-26 06:45 pm- 0.0-----29.83- 32.4- 31.6---
2024-02-26 06:30 pm E 1.9-----29.83- 32.4- 31.6---
2024-02-26 06:15 pm N 1.0-----29.83- 32.7- 31.6---
2024-02-26 06:00 pmNNW 2.9-----29.83+0.03 32.7- 31.5---
2024-02-26 05:45 pmNNW 8.9-----29.83- 34.7- 31.8---
2024-02-26 05:30 pmNNE 11.1-----29.83- 36.3- 30.4---
2024-02-26 05:15 pm NE 9.9-----29.80- 36.5- 30.4---
2024-02-26 05:00 pm E 6.0-----29.80+0.00 37.8- 29.7---
2024-02-26 04:45 pm E 6.0-----29.80- 38.7- 29.5---
2024-02-26 04:30 pm E 8.9-----29.80- 38.8- 28.9---
2024-02-26 04:15 pm E 7.0-----29.80- 38.3- 29.1---
2024-02-26 04:00 pmENE 8.0-----29.80-0.03 38.5- 28.6---
2024-02-26 03:45 pmENE 11.1-----29.80- 39.0- 27.9---
2024-02-26 03:30 pmENE 8.9-----29.80- 40.1- 26.2---
2024-02-26 03:15 pmNNE 8.0-----29.80- 41.0- 26.1---
2024-02-26 03:00 pmNNE 6.0-----29.80-0.03 41.7- 26.8---
2024-02-26 02:45 pm N 2.9-----29.80- 42.3- 26.1---
2024-02-26 02:30 pm N 1.9-----29.80- 42.6- 24.8---
2024-02-26 02:15 pm N 2.9-----29.80- 42.6- 25.3---
2024-02-26 02:00 pm N 4.1-----29.80+0.00 43.0- 26.2---
2024-02-26 01:45 pm N 6.0-----29.83- 43.3- 27.0---
2024-02-26 01:30 pm N 8.0-----29.83- 43.7- 27.3---
2024-02-26 01:15 pm N 9.9-----29.83- 43.5- 27.7---
2024-02-26 01:00 pm N 11.1-----29.83+0.03 43.0- 27.5---
2024-02-26 12:45 pm N 12.0-----29.83- 43.2- 28.2---
2024-02-26 12:30 pmNNW 9.9-----29.83- 44.2- 27.3---
2024-02-26 12:15 pmNNW 9.9-----29.83- 42.3- 27.0---
2024-02-26 12:00 pm NW 8.0-----29.83+0.03 43.0- 28.4---
2024-02-26 11:45 am NW 7.0-----29.83- 43.7- 30.0---
2024-02-26 11:30 am NW 7.0-----29.83- 42.6- 30.2---
2024-02-26 11:15 amWNW 8.9-----29.83- 42.8- 30.4---
2024-02-26 11:00 am NW 7.0-----29.80+0.03 43.5- 30.2---
2024-02-26 10:45 amWNW 7.0-----29.80- 43.0- 29.7---
2024-02-26 10:30 am NW 5.1-----29.80- 42.3- 29.8---
2024-02-26 10:15 am NW 5.1-----29.80- 42.1- 30.0---
2024-02-26 10:00 am NW 6.0-----29.80+0.06 42.1- 30.0---
2024-02-26 09:45 am NW 6.0-----29.80- 41.7- 30.9---
2024-02-26 09:30 am NW 6.0-----29.80- 41.4- 30.9---
2024-02-26 09:15 amWNW 6.0-----29.80- 40.5- 31.1---
2024-02-26 09:00 amWNW 7.0-----29.80+0.06 40.3- 31.3---
2024-02-26 08:45 amWNW 8.0-----29.77- 39.9- 31.3---
2024-02-26 08:30 am NW 8.9-----29.77- 39.9- 30.6---
2024-02-26 08:15 amWNW 8.0-----29.77- 39.4- 30.7---
2024-02-26 08:00 amWNW 5.1-----29.77+0.03 38.7- 31.1---
2024-02-26 07:45 amWNW 2.9-----29.77- 37.2- 31.6---
2024-02-26 07:30 amWNW 2.9-----29.77- 36.9- 32.0---
2024-02-26 07:15 am W 5.1-----29.74- 37.0- 31.8---
2024-02-26 07:00 amWNW 5.1-----29.74+0.03 37.4- 32.2---
2024-02-26 06:45 amWNW 8.0-----29.74- 37.8- 32.5---
2024-02-26 06:30 amWNW 8.0-----29.74- 37.8- 32.2---
2024-02-26 06:15 amWNW 9.9-----29.74- 38.1- 31.8---
2024-02-26 06:00 amWNW 9.9-----29.74+0.03 38.3- 32.0---
2024-02-26 05:45 amWNW 8.9-----29.74- 38.3- 32.0---
2024-02-26 05:30 amWNW 7.0-----29.74- 38.5- 32.0---
2024-02-26 05:15 amWNW 7.0-----29.74- 38.5- 31.6---
2024-02-26 05:00 amWNW 8.0-----29.74+0.03 38.7- 31.8---
2024-02-26 04:45 am W 8.0-----29.71- 38.5- 31.6---
2024-02-26 04:30 am W 6.0-----29.71- 37.9- 30.7---
2024-02-26 04:15 am W 7.0-----29.71- 37.9- 31.1---
2024-02-26 04:00 am W 8.0-----29.71+0.00 37.9- 31.5---
2024-02-26 03:45 am W 8.9-----29.71- 38.1- 31.6---
2024-02-26 03:30 am W 11.1-----29.71- 38.8- 32.4---
2024-02-26 03:15 am W 11.1-----29.71- 38.8- 32.4---
2024-02-26 03:00 am W 11.1-----29.71+0.00 39.2- 32.7---
2024-02-26 02:45 am W 9.9-----29.71- 39.2- 32.7---
2024-02-26 02:30 am W 11.1-----29.71- 39.4- 32.9---
2024-02-26 02:15 am W 8.0-----29.71- 39.0- 33.8---
2024-02-26 02:00 am W 9.9-----29.71+0.00 39.2- 32.9---
2024-02-26 01:45 am W 8.0-----29.71- 39.4- 32.9---
2024-02-26 01:30 am W 5.1-----29.71- 39.6- 32.7---
2024-02-26 01:15 am NW 4.1-----29.71- 39.6- 32.4---
2024-02-26 01:00 am NW 4.1-----29.71-0.03 39.0- 32.7---
2024-02-26 12:45 am N 1.0-----29.71- 38.7- 33.6---
2024-02-26 12:30 amNNW 1.0-----29.71- 38.5- 33.4---
2024-02-26 12:15 amWNW 4.1-----29.71- 38.8- 33.6---
2024-02-26 12:00 amWNW 7.0-----29.71+0.00 39.2- 33.3---
2024-02-25 11:45 pm W 6.0-----29.71- 39.6- 33.3---
2024-02-25 11:30 pmWNW 8.9-----29.71- 39.6- 33.1---
2024-02-25 11:15 pmWNW 11.1-----29.71- 39.7- 32.5---
2024-02-25 11:00 pmWNW 12.0-----29.71+0.03 40.1- 32.9---